,,,PA_Meas_PMT16A,,PR_Meas_QMR101_102,,RH_Meas_QMH101,,SR_Meas_QMS101,,TA_Meas_QMH101,,GenWind,,GenWind,
date,time,status,PA,status,PR,status,RH,status,SR,status,TA,status,DirAvg,status,SpdAvg,
2014-09-03, 00:00:04,VALID,1011.2,VALID,0,INVALID,131.826,VALID,0,VALID,23.5381,VALID,39,VALID,0.113672,
2014-09-03, 00:01:04,VALID,1011.22,VALID,0,INVALID,131.62,VALID,0,VALID,23.5169,VALID,39,VALID,0,
2014-09-03, 00:02:04,VALID,1011.27,VALID,0,INVALID,131.926,VALID,0,VALID,23.5169,VALID,39,VALID,0.191797,
2014-09-03, 00:03:04,VALID,1011.27,VALID,0,INVALID,131.994,VALID,0,VALID,23.5381,VALID,39,VALID,0.40625,
2014-09-03, 00:04:04,VALID,1011.33,VALID,0,INVALID,132.017,VALID,0,VALID,23.5381,VALID,39,VALID,0.304297,
2014-09-03, 00:05:04,VALID,1011.35,VALID,0,INVALID,132.078,VALID,0,VALID,23.4974,VALID,39,VALID,0.433984,
2014-09-03, 00:06:04,VALID,1011.37,VALID,0,INVALID,133.054,VALID,0,VALID,23.4992,VALID,39,VALID,0.661328,
2014-09-03, 00:07:04,VALID,1011.41,VALID,0,INVALID,133.191,VALID,0,VALID,23.4797,VALID,39,VALID,1.23945,
2014-09-03, 00:08:04,VALID,1011.38,VALID,0,INVALID,133.771,VALID,0,VALID,23.4602,VALID,36,VALID,1.31602,
2014-09-03, 00:09:04,VALID,1011.44,VALID,0,INVALID,134.03,VALID,0,VALID,23.4212,VALID,37,VALID,1.75352,
2014-09-03, 00:10:04,VALID,1011.5,VALID,0,INVALID,134.419,VALID,0,VALID,23.4017,VALID,57,VALID,1.18164,
2014-09-03, 00:11:04,VALID,1011.53,VALID,0,INVALID,134.602,VALID,0,VALID,23.3805,VALID,50,VALID,1.2082,
2014-09-03, 00:12:04,VALID,1011.53,VALID,0,INVALID,134.663,VALID,0,VALID,23.4017,VALID,48,VALID,0.932031,
2014-09-03, 00:13:04,VALID,1011.48,VALID,0,INVALID,134.473,VALID,0,VALID,23.3823,VALID,48,VALID,1.19492,
2014-09-03, 00:14:04,VALID,1011.41,VALID,0,INVALID,134.457,VALID,0,VALID,23.4017,VALID,48,VALID,1.18359,
2014-09-03, 00:15:04,VALID,1011.42,VALID,0,INVALID,134.541,VALID,0,VALID,23.4017,VALID,48,VALID,0.846875,
2014-09-03, 00:16:04,VALID,1011.34,VALID,0,INVALID,134.335,VALID,0,VALID,23.3823,VALID,48,VALID,1.34727,
2014-09-03, 00:17:04,VALID,1011.33,VALID,0,INVALID,134.404,VALID,0,VALID,23.3823,VALID,48,VALID,1.04453,
2014-09-03, 00:18:04,VALID,1011.34,VALID,0,INVALID,134.747,VALID,0,VALID,23.3628,VALID,48,VALID,0.653516,
2014-09-03, 00:19:04,VALID,1011.36,VALID,0,INVALID,134.694,VALID,0,VALID,23.3628,VALID,48,VALID,1.13047,
2014-09-03, 00:20:04,VALID,1011.38,VALID,0,INVALID,134.61,VALID,0,VALID,23.3628,VALID,48,VALID,0.25,
2014-09-03, 00:21:04,VALID,1011.41,VALID,0,INVALID,134.671,VALID,0,VALID,23.3433,VALID,48,VALID,0.269922,
2014-09-03, 00:22:04,VALID,1011.46,VALID,0,INVALID,134.8,VALID,0,VALID,23.3433,VALID,48,VALID,0.395703,
2014-09-03, 00:23:04,VALID,1011.44,VALID,0,INVALID,134.991,VALID,0,VALID,23.3433,VALID,48,VALID,0.0886719,
2014-09-03, 00:24:04,VALID,1011.45,VALID,0,INVALID,135.006,VALID,0,VALID,23.3433,VALID,48,VALID,0.232031,
2014-09-03, 00:25:04,VALID,1011.49,VALID,0,INVALID,134.976,VALID,0,VALID,23.3433,VALID,48,VALID,0.397266,
2014-09-03, 00:26:04,VALID,1011.46,VALID,0,INVALID,134.785,VALID,0,VALID,23.3238,VALID,48,VALID,0.489453,
2014-09-03, 00:27:04,VALID,1011.52,VALID,0,INVALID,134.739,VALID,0,VALID,23.3238,VALID,48,VALID,0.765625,
2014-09-03, 00:28:04,VALID,1011.49,VALID,0,INVALID,134.678,VALID,0.112112,VALID,23.3043,VALID,48,VALID,0.289844,
2014-09-03, 00:29:04,VALID,1011.48,VALID,0,INVALID,134.625,VALID,0,VALID,23.3043,VALID,48,VALID,0.492578,
2014-09-03, 00:30:04,VALID,1011.46,VALID,0,INVALID,134.8,VALID,0.112112,VALID,23.2848,VALID,48,VALID,0.238672,
2014-09-03, 00:31:04,VALID,1011.44,VALID,0,INVALID,134.9,VALID,0,VALID,23.2848,VALID,48,VALID,0.0679687,
2014-09-03, 00:32:04,VALID,1011.42,VALID,0,INVALID,134.595,VALID,0.112112,VALID,23.2848,VALID,48,VALID,0.773828,
2014-09-03, 00:33:04,VALID,1011.39,VALID,0,INVALID,134.312,VALID,0,VALID,23.2441,VALID,48,VALID,0.267578,
2014-09-03, 00:34:04,VALID,1011.36,VALID,0,INVALID,134.358,VALID,0.112112,VALID,23.2654,VALID,48,VALID,0.265625,
2014-09-03, 00:35:04,VALID,1011.37,VALID,0,INVALID,134.145,VALID,0.112112,VALID,23.2848,VALID,48,VALID,0,
2014-09-03, 00:36:04,VALID,1011.35,VALID,0,INVALID,134.343,VALID,0,VALID,23.2848,VALID,48,VALID,0,
2014-09-03, 00:37:04,VALID,1011.35,VALID,0,INVALID,134.305,VALID,0,VALID,23.2848,VALID,48,VALID,0,
2014-09-03, 00:38:04,VALID,1011.32,VALID,0,INVALID,133.779,VALID,0,VALID,23.2654,VALID,48,VALID,0,
2014-09-03, 00:39:04,VALID,1011.32,VALID,0,INVALID,134.091,VALID,0,VALID,23.2654,VALID,48,VALID,0,
2014-09-03, 00:40:04,VALID,1011.31,VALID,0,INVALID,133.641,VALID,0,VALID,23.2654,VALID,48,VALID,0,
2014-09-03, 00:41:04,VALID,1011.33,VALID,0,INVALID,133.603,VALID,0,VALID,23.2459,VALID,48,VALID,0,
2014-09-03, 00:42:04,VALID,1011.31,VALID,0,INVALID,133.664,VALID,0,VALID,23.2264,VALID,48,VALID,0,
2014-09-03, 00:43:04,VALID,1011.32,VALID,0,INVALID,133.657,VALID,0.112112,VALID,23.2459,VALID,48,VALID,0,
2014-09-03, 00:44:04,VALID,1011.29,VALID,0,INVALID,133.306,VALID,0,VALID,23.2264,VALID,48,VALID,0,
2014-09-03, 00:45:04,VALID,1011.25,VALID,0,INVALID,133.329,VALID,0,VALID,23.2264,VALID,48,VALID,0,
2014-09-03, 00:46:04,VALID,1011.24,VALID,0,INVALID,133.329,VALID,0,VALID,23.2459,VALID,48,VALID,0,
2014-09-03, 00:47:04,VALID,1011.19,VALID,0,INVALID,133.283,VALID,0,VALID,23.2459,VALID,48,VALID,0,
2014-09-03, 00:48:04,VALID,1011.15,VALID,0,INVALID,132.017,VALID,0,VALID,23.2459,VALID,48,VALID,0,
2014-09-03, 00:49:04,VALID,1011.12,VALID,0,INVALID,132.002,VALID,0,VALID,23.2459,VALID,48,VALID,0,
2014-09-03, 00:50:04,VALID,1011.05,VALID,0,INVALID,132.055,VALID,0.112112,VALID,23.2459,VALID,48,VALID,0,
2014-09-03, 00:51:04,VALID,1011.02,VALID,0,INVALID,131.598,VALID,0,VALID,23.2459,VALID,48,VALID,0,
2014-09-03, 00:52:04,VALID,1011.03,VALID,0,INVALID,132.009,VALID,0.112112,VALID,23.2051,VALID,48,VALID,0,
2014-09-03, 00:53:04,VALID,1011.03,VALID,0,INVALID,132.482,VALID,0,VALID,23.2069,VALID,48,VALID,0,
2014-09-03, 00:54:04,VALID,1011.04,VALID,0,INVALID,132.398,VALID,0,VALID,23.1874,VALID,48,VALID,0,
2014-09-03, 00:55:04,VALID,1011.04,VALID,0,INVALID,132.68,VALID,0,VALID,23.1874,VALID,48,VALID,0,
2014-09-03, 00:56:04,VALID,1010.99,VALID,0,INVALID,132.894,VALID,0,VALID,23.1874,VALID,48,VALID,0,
2014-09-03, 00:57:04,VALID,1010.94,VALID,0,INVALID,133.313,VALID,0.112112,VALID,23.1874,VALID,48,VALID,0,
2014-09-03, 00:58:04,VALID,1010.88,VALID,0,INVALID,133.74,VALID,0,VALID,23.1874,VALID,48,VALID,0,
2014-09-03, 00:59:04,VALID,1010.82,VALID,0,INVALID,133.908,VALID,0,VALID,23.1874,VALID,48,VALID,0,
2014-09-03, 01:00:04,VALID,1010.76,VALID,0,INVALID,133.489,VALID,0.112112,VALID,23.1874,VALID,48,VALID,0,
2014-09-03, 01:01:04,VALID,1010.75,VALID,0,INVALID,133.855,VALID,0,VALID,23.1874,VALID,48,VALID,0,
2014-09-03, 01:02:04,VALID,1010.82,VALID,0,INVALID,133.923,VALID,0,VALID,23.1679,VALID,48,VALID,0,
2014-09-03, 01:03:04,VALID,1010.83,VALID,0,INVALID,133.687,VALID,0,VALID,23.1485,VALID,48,VALID,0,
2014-09-03, 01:04:04,VALID,1010.83,VALID,0,INVALID,134.053,VALID,0,VALID,23.1485,VALID,48,VALID,0,
2014-09-03, 01:05:04,VALID,1010.81,VALID,0,INVALID,134.282,VALID,0.112112,VALID,23.1485,VALID,48,VALID,0,
2014-09-03, 01:06:04,VALID,1010.81,VALID,0,INVALID,134.366,VALID,0.112112,VALID,23.129,VALID,48,VALID,0,
2014-09-03, 01:07:04,VALID,1010.77,VALID,0,INVALID,134.785,VALID,0,VALID,23.1272,VALID,48,VALID,0,
2014-09-03, 01:08:04,VALID,1010.75,VALID,0,INVALID,134.869,VALID,0.112112,VALID,23.1485,VALID,48,VALID,0,
2014-09-03, 01:09:04,VALID,1010.75,VALID,0,INVALID,135.014,VALID,0,VALID,23.1485,VALID,48,VALID,0,
2014-09-03, 01:10:04,VALID,1010.73,VALID,0,INVALID,134.732,VALID,0,VALID,23.1077,VALID,48,VALID,0,
2014-09-03, 01:11:04,VALID,1010.72,VALID,0,INVALID,134.694,VALID,0.112112,VALID,23.1485,VALID,48,VALID,0,
2014-09-03, 01:12:04,VALID,1010.7,VALID,0,INVALID,134.869,VALID,0.112112,VALID,23.1485,VALID,48,VALID,0,
2014-09-03, 01:13:04,VALID,1010.69,VALID,0,INVALID,134.968,VALID,0,VALID,23.129,VALID,48,VALID,0,
2014-09-03, 01:14:04,VALID,1010.68,VALID,0,INVALID,135.037,VALID,0,VALID,23.129,VALID,48,VALID,0,
2014-09-03, 01:15:04,VALID,1010.67,VALID,0,INVALID,135.205,VALID,0.112112,VALID,23.1077,VALID,48,VALID,0,
2014-09-03, 01:16:04,VALID,1010.66,VALID,0,INVALID,135.273,VALID,0,VALID,23.1095,VALID,48,VALID,0,
2014-09-03, 01:17:04,VALID,1010.66,VALID,0,INVALID,135.258,VALID,0,VALID,23.0883,VALID,48,VALID,0,
2014-09-03, 01:18:04,VALID,1010.66,VALID,0,INVALID,135.273,VALID,0,VALID,23.129,VALID,48,VALID,0,
2014-09-03, 01:19:04,VALID,1010.64,VALID,0,INVALID,135.121,VALID,0,VALID,23.1095,VALID,48,VALID,0,
2014-09-03, 01:20:04,VALID,1010.63,VALID,0,INVALID,135.067,VALID,0,VALID,23.129,VALID,48,VALID,0,
2014-09-03, 01:21:04,VALID,1010.63,VALID,0,INVALID,134.755,VALID,0.112112,VALID,23.1095,VALID,48,VALID,0,
2014-09-03, 01:22:04,VALID,1010.62,VALID,0,INVALID,134.686,VALID,0,VALID,23.1095,VALID,48,VALID,0,
2014-09-03, 01:23:04,VALID,1010.62,VALID,0,INVALID,134.678,VALID,0.112112,VALID,23.1095,VALID,48,VALID,0,
2014-09-03, 01:24:04,VALID,1010.61,VALID,0,INVALID,134.518,VALID,0,VALID,23.129,VALID,48,VALID,0,
2014-09-03, 01:25:04,VALID,1010.61,VALID,0,INVALID,134.427,VALID,0,VALID,23.129,VALID,48,VALID,0,
2014-09-03, 01:26:04,VALID,1010.58,VALID,0,INVALID,134.488,VALID,0,VALID,23.129,VALID,48,VALID,0,
2014-09-03, 01:27:04,VALID,1010.61,VALID,0,INVALID,134.366,VALID,0.112112,VALID,23.129,VALID,48,VALID,0,
2014-09-03, 01:28:04,VALID,1010.6,VALID,0,INVALID,134.518,VALID,0.112112,VALID,23.1485,VALID,48,VALID,0,
2014-09-03, 01:29:04,VALID,1010.6,VALID,0,INVALID,134.617,VALID,0,VALID,23.129,VALID,48,VALID,0,
2014-09-03, 01:30:04,VALID,1010.58,VALID,0,INVALID,134.831,VALID,0,VALID,23.1485,VALID,48,VALID,0,
2014-09-03, 01:31:04,VALID,1010.55,VALID,0,INVALID,135.083,VALID,0,VALID,23.129,VALID,48,VALID,0,
2014-09-03, 01:32:04,VALID,1010.54,VALID,0,INVALID,135.159,VALID,0.112112,VALID,23.129,VALID,48,VALID,0,
2014-09-03, 01:33:04,VALID,1010.54,VALID,0,INVALID,135.418,VALID,0,VALID,23.1095,VALID,48,VALID,0,
2014-09-03, 01:34:04,VALID,1010.55,VALID,0,INVALID,135.533,VALID,0,VALID,23.0883,VALID,48,VALID,0,
2014-09-03, 01:35:04,VALID,1010.54,VALID,0,INVALID,135.647,VALID,0.112112,VALID,23.09,VALID,48,VALID,0,
2014-09-03, 01:36:04,VALID,1010.55,VALID,0,INVALID,135.594,VALID,0,VALID,23.0493,VALID,48,VALID,0,
2014-09-03, 01:37:04,VALID,1010.58,VALID,0,INVALID,135.845,VALID,0,VALID,23.0705,VALID,48,VALID,0,
2014-09-03, 01:38:04,VALID,1010.56,VALID,0,INVALID,135.906,VALID,0.112112,VALID,23.0511,VALID,48,VALID,0,
2014-09-03, 01:39:04,VALID,1010.57,VALID,0,INVALID,135.99,VALID,0,VALID,23.0103,VALID,48,VALID,0,
2014-09-03, 01:40:04,VALID,1010.56,VALID,0,INVALID,136.082,VALID,0.112112,VALID,23.0316,VALID,48,VALID,0,
2014-09-03, 01:41:04,VALID,1010.59,VALID,0,INVALID,136.234,VALID,0,VALID,23.0316,VALID,48,VALID,0,
2014-09-03, 01:42:04,VALID,1010.62,VALID,0,INVALID,136.257,VALID,0,VALID,23.0511,VALID,48,VALID,0,
2014-09-03, 01:43:04,VALID,1010.64,VALID,0,INVALID,136.226,VALID,0,VALID,23.0316,VALID,48,VALID,0,
2014-09-03, 01:44:04,VALID,1010.67,VALID,0,INVALID,136.28,VALID,0.112112,VALID,23.0316,VALID,48,VALID,0,
2014-09-03, 01:45:04,VALID,1010.67,VALID,0,INVALID,136.379,VALID,0.112112,VALID,23.0103,VALID,48,VALID,0,
2014-09-03, 01:46:04,VALID,1010.62,VALID,0,INVALID,136.47,VALID,0,VALID,23.0511,VALID,48,VALID,0,
2014-09-03, 01:47:04,VALID,1010.63,VALID,0,INVALID,136.364,VALID,0.112112,VALID,23.0298,VALID,48,VALID,0,
2014-09-03, 01:48:04,VALID,1010.63,VALID,0,INVALID,136.364,VALID,0.112112,VALID,23.0298,VALID,48,VALID,0,
2014-09-03, 01:49:04,VALID,1010.65,VALID,0,INVALID,136.326,VALID,0,VALID,23.0316,VALID,48,VALID,0,
2014-09-03, 01:50:04,VALID,1010.65,VALID,0,INVALID,136.341,VALID,0,VALID,23.0121,VALID,48,VALID,0,
2014-09-03, 01:51:04,VALID,1010.65,VALID,0,INVALID,136.341,VALID,0,VALID,23.0333,VALID,48,VALID,0,
2014-09-03, 01:52:04,VALID,1010.67,VALID,0,INVALID,136.333,VALID,0.112112,VALID,23.0316,VALID,48,VALID,0,
2014-09-03, 01:53:04,VALID,1010.7,VALID,0,INVALID,136.356,VALID,0,VALID,23.0316,VALID,48,VALID,0,
2014-09-03, 01:54:04,VALID,1010.7,VALID,0,INVALID,136.379,VALID,0.112112,VALID,23.0511,VALID,48,VALID,0,
2014-09-03, 01:55:04,VALID,1010.71,VALID,0,INVALID,136.364,VALID,0,VALID,23.0316,VALID,48,VALID,0,
2014-09-03, 01:56:04,VALID,1010.76,VALID,0,INVALID,136.181,VALID,0.112112,VALID,23.0316,VALID,100,VALID,0,
2014-09-03, 01:57:04,VALID,1010.77,VALID,0,INVALID,136.173,VALID,0,VALID,23.0316,VALID,100,VALID,0,
2014-09-03, 01:58:04,VALID,1010.83,VALID,0,INVALID,136.234,VALID,0.112112,VALID,23.0511,VALID,100,VALID,0,
2014-09-03, 01:59:04,VALID,1010.85,VALID,0,INVALID,136.272,VALID,0,VALID,23.0511,VALID,100,VALID,0,
2014-09-03, 02:00:04,VALID,1010.87,VALID,0,INVALID,136.272,VALID,0,VALID,23.0511,VALID,97,VALID,0,
2014-09-03, 02:01:04,VALID,1010.93,VALID,0,INVALID,136.135,VALID,0,VALID,23.0121,VALID,95,VALID,0,
2014-09-03, 02:02:04,VALID,1010.95,VALID,0,INVALID,136.211,VALID,0,VALID,23.0316,VALID,93,VALID,0,
2014-09-03, 02:03:04,VALID,1010.99,VALID,0,INVALID,136.326,VALID,0,VALID,23.0316,VALID,95,VALID,0,
2014-09-03, 02:04:04,VALID,1010.98,VALID,0,INVALID,136.204,VALID,0.112112,VALID,23.0316,VALID,93,VALID,0,
2014-09-03, 02:05:04,VALID,1010.96,VALID,0,INVALID,136.173,VALID,0.112112,VALID,23.0121,VALID,93,VALID,0,
2014-09-03, 02:06:04,VALID,1010.97,VALID,0,INVALID,136.234,VALID,0,VALID,23.0316,VALID,93,VALID,0,
2014-09-03, 02:07:04,VALID,1011,VALID,0,INVALID,136.226,VALID,0,VALID,23.0121,VALID,93,VALID,0,
2014-09-03, 02:08:04,VALID,1011,VALID,0,INVALID,136.303,VALID,0,VALID,23.0121,VALID,93,VALID,0,
2014-09-03, 02:09:04,VALID,1010.99,VALID,0,INVALID,136.204,VALID,0.112112,VALID,23.0103,VALID,93,VALID,0,
2014-09-03, 02:10:04,VALID,1011.03,VALID,0,INVALID,136.173,VALID,0.112112,VALID,23.0121,VALID,93,VALID,0,
2014-09-03, 02:11:04,VALID,1011.06,VALID,0,INVALID,136.272,VALID,0,VALID,23.0316,VALID,93,VALID,0,
2014-09-03, 02:12:04,VALID,1011.06,VALID,0,INVALID,136.211,VALID,0,VALID,23.0316,VALID,93,VALID,0,
2014-09-03, 02:13:04,VALID,1011.06,VALID,0,INVALID,136.165,VALID,0,VALID,23.0511,VALID,93,VALID,0,
2014-09-03, 02:14:04,VALID,1011.08,VALID,0,INVALID,135.998,VALID,0.112112,VALID,23.0511,VALID,93,VALID,0,
2014-09-03, 02:15:04,VALID,1011.13,VALID,0,INVALID,135.998,VALID,0,VALID,23.0316,VALID,93,VALID,0,
2014-09-03, 02:16:04,VALID,1011.12,VALID,0,INVALID,136.15,VALID,0,VALID,23.0298,VALID,93,VALID,0,
2014-09-03, 02:17:04,VALID,1011.13,VALID,0,INVALID,136.204,VALID,0,VALID,23.0705,VALID,93,VALID,0,
2014-09-03, 02:18:04,VALID,1011.15,VALID,0,INVALID,136.158,VALID,0,VALID,23.0705,VALID,93,VALID,0,
2014-09-03, 02:19:04,VALID,1011.15,VALID,0,INVALID,136.15,VALID,0,VALID,23.0705,VALID,93,VALID,0,
2014-09-03, 02:20:04,VALID,1011.17,VALID,0,INVALID,136.226,VALID,0,VALID,23.09,VALID,93,VALID,0,
2014-09-03, 02:21:04,VALID,1011.17,VALID,0,INVALID,136.287,VALID,0,VALID,23.0918,VALID,93,VALID,0,
2014-09-03, 02:22:04,VALID,1011.19,VALID,0,INVALID,136.242,VALID,0,VALID,23.09,VALID,93,VALID,0,
2014-09-03, 02:23:04,VALID,1011.22,VALID,0,INVALID,136.265,VALID,0,VALID,23.0883,VALID,93,VALID,0,
2014-09-03, 02:24:04,VALID,1011.24,VALID,0,INVALID,136.219,VALID,0,VALID,23.129,VALID,93,VALID,0,
2014-09-03, 02:25:04,VALID,1011.28,VALID,0,INVALID,136.005,VALID,0,VALID,23.1485,VALID,93,VALID,0,
2014-09-03, 02:26:04,VALID,1011.28,VALID,0,INVALID,135.334,VALID,0,VALID,23.1485,VALID,93,VALID,0,
2014-09-03, 02:27:04,VALID,1011.3,VALID,0,INVALID,134.29,VALID,0,VALID,23.1272,VALID,93,VALID,0,
2014-09-03, 02:28:04,VALID,1011.32,VALID,0,INVALID,134.068,VALID,0,VALID,23.1679,VALID,93,VALID,0,
2014-09-03, 02:29:04,VALID,1011.32,VALID,0,INVALID,134.312,VALID,0,VALID,23.1679,VALID,93,VALID,0,
2014-09-03, 02:30:04,VALID,1011.27,VALID,0,INVALID,134.861,VALID,0,VALID,23.1874,VALID,93,VALID,0,
2014-09-03, 02:31:04,VALID,1011.26,VALID,0,INVALID,135.151,VALID,0,VALID,23.1874,VALID,93,VALID,0,
2014-09-03, 02:32:04,VALID,1011.23,VALID,0,INVALID,134.701,VALID,0,VALID,23.1874,VALID,93,VALID,0,
2014-09-03, 02:33:04,VALID,1011.23,VALID,0,INVALID,134.518,VALID,0,VALID,23.1679,VALID,93,VALID,0,
2014-09-03, 02:34:04,VALID,1011.19,VALID,0,INVALID,134.541,VALID,0,VALID,23.1679,VALID,93,VALID,0,
2014-09-03, 02:35:04,VALID,1011.21,VALID,0,INVALID,134.358,VALID,0,VALID,23.1679,VALID,93,VALID,0,
2014-09-03, 02:36:04,VALID,1011.18,VALID,0,INVALID,134.64,VALID,0,VALID,23.1679,VALID,93,VALID,0,
2014-09-03, 02:37:04,VALID,1011.19,VALID,0,INVALID,135.456,VALID,0,VALID,23.1679,VALID,93,VALID,0,
2014-09-03, 02:38:04,VALID,1011.15,VALID,0,INVALID,135.525,VALID,0,VALID,23.1679,VALID,93,VALID,0,
2014-09-03, 02:39:04,VALID,1011.08,VALID,0,INVALID,135.426,VALID,0,VALID,23.1485,VALID,93,VALID,0,
2014-09-03, 02:40:04,VALID,1011.07,VALID,0,INVALID,135.418,VALID,0,VALID,23.1272,VALID,93,VALID,0,
2014-09-03, 02:41:04,VALID,1011.02,VALID,0,INVALID,135.372,VALID,0,VALID,23.1679,VALID,93,VALID,0,
2014-09-03, 02:42:04,VALID,1011.02,VALID,0,INVALID,135.334,VALID,0,VALID,23.1485,VALID,93,VALID,0,
2014-09-03, 02:43:04,VALID,1011.05,VALID,0,INVALID,135.487,VALID,0,VALID,23.1485,VALID,93,VALID,0,
2014-09-03, 02:44:04,VALID,1011.07,VALID,0,INVALID,135.571,VALID,0,VALID,23.1485,VALID,93,VALID,0,
2014-09-03, 02:45:04,VALID,1011.12,VALID,0,INVALID,135.67,VALID,0,VALID,23.1485,VALID,93,VALID,0,
2014-09-03, 02:46:04,VALID,1011.14,VALID,0,INVALID,135.815,VALID,0,VALID,23.1679,VALID,93,VALID,0,
2014-09-03, 02:47:04,VALID,1011.18,VALID,0,INVALID,136.074,VALID,0,VALID,23.1679,VALID,93,VALID,0,
2014-09-03, 02:48:04,VALID,1011.22,VALID,0,INVALID,136.135,VALID,0,VALID,23.1679,VALID,93,VALID,0,
2014-09-03, 02:49:04,VALID,1011.22,VALID,0,INVALID,136.204,VALID,0,VALID,23.1874,VALID,93,VALID,0,
2014-09-03, 02:50:04,VALID,1011.25,VALID,0,INVALID,136.127,VALID,0,VALID,23.1857,VALID,93,VALID,0,
2014-09-03, 02:51:04,VALID,1011.27,VALID,0,INVALID,135.99,VALID,0,VALID,23.2069,VALID,93,VALID,0,
2014-09-03, 02:52:04,VALID,1011.24,VALID,0,INVALID,135.708,VALID,0,VALID,23.2069,VALID,93,VALID,0,
2014-09-03, 02:53:04,VALID,1011.24,VALID,0,INVALID,135.418,VALID,0,VALID,23.1857,VALID,93,VALID,0,
2014-09-03, 02:54:04,VALID,1011.24,VALID,0,INVALID,135.105,VALID,0,VALID,23.1874,VALID,87,VALID,0,
2014-09-03, 02:55:04,VALID,1011.19,VALID,0,INVALID,134.9,VALID,0,VALID,23.1874,VALID,77,VALID,0,
2014-09-03, 02:56:04,VALID,1011.19,VALID,0,INVALID,135.083,VALID,0,VALID,23.1874,VALID,77,VALID,0,
2014-09-03, 02:57:04,VALID,1011.2,VALID,0,INVALID,135.472,VALID,0,VALID,23.1874,VALID,77,VALID,0,
2014-09-03, 02:58:04,VALID,1011.18,VALID,0,INVALID,135.609,VALID,0,VALID,23.1662,VALID,77,VALID,0,
2014-09-03, 02:59:04,VALID,1011.16,VALID,0,INVALID,135.754,VALID,0,VALID,23.1679,VALID,77,VALID,0,
2014-09-03, 03:00:04,VALID,1011.15,VALID,0,INVALID,135.921,VALID,0,VALID,23.1679,VALID,77,VALID,0,
2014-09-03, 03:01:04,VALID,1011.16,VALID,0,INVALID,136.143,VALID,0,VALID,23.1272,VALID,77,VALID,0,
2014-09-03, 03:02:04,VALID,1011.12,VALID,0,INVALID,136.15,VALID,0,VALID,23.1485,VALID,77,VALID,0,
2014-09-03, 03:03:04,VALID,1011.07,VALID,0,INVALID,136.326,VALID,0,VALID,23.1502,VALID,77,VALID,0,
2014-09-03, 03:04:04,VALID,1011.04,VALID,0,INVALID,136.455,VALID,0,VALID,23.1485,VALID,77,VALID,0,
2014-09-03, 03:05:04,VALID,1011,VALID,0,INVALID,136.417,VALID,0,VALID,23.1502,VALID,77,VALID,0,
2014-09-03, 03:06:04,VALID,1010.98,VALID,0,INVALID,136.592,VALID,0,VALID,23.1485,VALID,77,VALID,0,
2014-09-03, 03:07:04,VALID,1010.94,VALID,0,INVALID,136.585,VALID,0,VALID,23.1485,VALID,87,VALID,0,
2014-09-03, 03:08:04,VALID,1010.91,VALID,0,INVALID,136.638,VALID,0,VALID,23.1679,VALID,101,VALID,0,
2014-09-03, 03:09:04,VALID,1010.92,VALID,0,INVALID,136.448,VALID,0,VALID,23.1485,VALID,101,VALID,0,
2014-09-03, 03:10:04,VALID,1010.89,VALID,0,INVALID,136.47,VALID,0,VALID,23.1485,VALID,101,VALID,0,
2014-09-03, 03:11:04,VALID,1010.9,VALID,0,INVALID,136.463,VALID,0,VALID,23.129,VALID,101,VALID,0,
2014-09-03, 03:12:04,VALID,1010.86,VALID,0,INVALID,136.486,VALID,0,VALID,23.129,VALID,101,VALID,0,
2014-09-03, 03:13:04,VALID,1010.87,VALID,0,INVALID,136.524,VALID,0,VALID,23.1095,VALID,101,VALID,0,
2014-09-03, 03:14:04,VALID,1010.88,VALID,0,INVALID,136.631,VALID,0,VALID,23.09,VALID,101,VALID,0,
2014-09-03, 03:15:04,VALID,1010.86,VALID,0,INVALID,136.76,VALID,0,VALID,23.1095,VALID,101,VALID,0,
2014-09-03, 03:16:04,VALID,1010.87,VALID,0,INVALID,136.844,VALID,0.112112,VALID,23.0688,VALID,101,VALID,0,
2014-09-03, 03:17:04,VALID,1010.87,VALID,0,INVALID,136.829,VALID,0,VALID,23.09,VALID,101,VALID,0,
2014-09-03, 03:18:04,VALID,1010.82,VALID,0,INVALID,136.852,VALID,0.112112,VALID,23.09,VALID,101,VALID,0,
2014-09-03, 03:19:04,VALID,1010.85,VALID,0,INVALID,136.913,VALID,0.112112,VALID,23.0688,VALID,101,VALID,0,
2014-09-03, 03:20:04,VALID,1010.85,VALID,0,INVALID,136.92,VALID,0,VALID,23.0705,VALID,101,VALID,0,
2014-09-03, 03:21:04,VALID,1010.86,VALID,0,INVALID,136.951,VALID,0,VALID,23.0705,VALID,101,VALID,0,
2014-09-03, 03:22:04,VALID,1010.85,VALID,0,INVALID,136.936,VALID,0,VALID,23.0705,VALID,101,VALID,0,
2014-09-03, 03:23:04,VALID,1010.86,VALID,0,INVALID,136.928,VALID,0,VALID,23.0705,VALID,101,VALID,0,
2014-09-03, 03:24:04,VALID,1010.87,VALID,0,INVALID,136.928,VALID,0,VALID,23.09,VALID,101,VALID,0,
2014-09-03, 03:25:04,VALID,1010.85,VALID,0,INVALID,136.928,VALID,0.112112,VALID,23.0705,VALID,101,VALID,0,
2014-09-03, 03:26:04,VALID,1010.87,VALID,0,INVALID,136.89,VALID,0.112112,VALID,23.0493,VALID,101,VALID,0,
2014-09-03, 03:27:04,VALID,1010.86,VALID,0,INVALID,136.898,VALID,0,VALID,23.09,VALID,101,VALID,0,
2014-09-03, 03:28:04,VALID,1010.86,VALID,0,INVALID,136.859,VALID,0.112112,VALID,23.09,VALID,101,VALID,0,
2014-09-03, 03:29:04,VALID,1010.86,VALID,0,INVALID,136.867,VALID,0,VALID,23.0688,VALID,101,VALID,0,
2014-09-03, 03:30:04,VALID,1010.85,VALID,0,INVALID,136.89,VALID,0.112112,VALID,23.09,VALID,101,VALID,0,
2014-09-03, 03:31:04,VALID,1010.86,VALID,0,INVALID,136.882,VALID,0.112112,VALID,23.09,VALID,101,VALID,0,
2014-09-03, 03:32:04,VALID,1010.85,VALID,0,INVALID,136.875,VALID,0.112112,VALID,23.0688,VALID,101,VALID,0,
2014-09-03, 03:33:04,VALID,1010.89,VALID,0,INVALID,136.882,VALID,0.112112,VALID,23.09,VALID,101,VALID,0,
2014-09-03, 03:34:04,VALID,1010.89,VALID,0,INVALID,136.913,VALID,0,VALID,23.09,VALID,101,VALID,0,
2014-09-03, 03:35:04,VALID,1010.89,VALID,0,INVALID,136.867,VALID,0.112112,VALID,23.09,VALID,101,VALID,0,
2014-09-03, 03:36:04,VALID,1010.91,VALID,0,INVALID,136.89,VALID,0,VALID,23.09,VALID,101,VALID,0,
2014-09-03, 03:37:04,VALID,1010.92,VALID,0,INVALID,136.882,VALID,0,VALID,23.0705,VALID,101,VALID,0,
2014-09-03, 03:38:04,VALID,1010.93,VALID,0,INVALID,136.875,VALID,0,VALID,23.0705,VALID,101,VALID,0,
2014-09-03, 03:39:04,VALID,1010.94,VALID,0,INVALID,136.768,VALID,0.112112,VALID,23.0705,VALID,101,VALID,0,
2014-09-03, 03:40:04,VALID,1010.92,VALID,0,INVALID,136.806,VALID,0.112112,VALID,23.0705,VALID,101,VALID,0,
2014-09-03, 03:41:04,VALID,1010.9,VALID,0,INVALID,136.821,VALID,0,VALID,23.0705,VALID,101,VALID,0,
2014-09-03, 03:42:04,VALID,1010.95,VALID,0,INVALID,136.737,VALID,0,VALID,23.0705,VALID,101,VALID,0,
2014-09-03, 03:43:05,VALID,1010.92,VALID,0,INVALID,136.692,VALID,0.112112,VALID,23.09,VALID,101,VALID,0,
2014-09-03, 03:44:05,VALID,1010.94,VALID,0,INVALID,136.745,VALID,0,VALID,23.0705,VALID,101,VALID,0,
2014-09-03, 03:45:05,VALID,1010.93,VALID,0,INVALID,136.73,VALID,0,VALID,23.09,VALID,101,VALID,0,
2014-09-03, 03:46:05,VALID,1010.93,VALID,0,INVALID,136.486,VALID,0,VALID,23.0705,VALID,101,VALID,0,
2014-09-03, 03:47:05,VALID,1010.93,VALID,0,INVALID,136.387,VALID,0.112112,VALID,23.0705,VALID,101,VALID,0,
2014-09-03, 03:48:05,VALID,1010.92,VALID,0,INVALID,136.219,VALID,0,VALID,23.0705,VALID,101,VALID,0,
2014-09-03, 03:49:05,VALID,1010.92,VALID,0,INVALID,136.448,VALID,0.112112,VALID,23.0705,VALID,101,VALID,0,
2014-09-03, 03:50:05,VALID,1010.94,VALID,0,INVALID,136.669,VALID,0,VALID,23.1095,VALID,101,VALID,0,
2014-09-03, 03:51:05,VALID,1010.94,VALID,0,INVALID,136.478,VALID,0.112112,VALID,23.0688,VALID,101,VALID,0,